Back to catalog

DELTA 1 DEB

AlivePO
NORAD 21362·DEBRIS·🇺🇸 United States

Launched Jun 12, 1975 from Vandenberg Space Force Base

Loading…

Next Passes (next 24 hours)

TLE

FreshSource: Space-Track

Epoch: Sep 14, 2026, 07:08 UTC

1 21362U 75052CG  26257.29752164  .00006441  00000-0  23100-1 0  9993
2 21362  99.4223   8.1741 0590381  16.2059   7.9855 12.48468953582958

Track DELTA 1 DEB in real time with AllMySat

Download on the App Store